User: anonymous   Login
Location: Unspecified
(0.0000°N, 0.0000°E)
Time: 19:53:50
(UTC+02:00)
Language:

Ariane H10 - Orbit

View from above orbital plane
View from above orbital plane
View from above satellite
View from above satellite

Ground track
Ground track

The orbit data is extracted from the following two-line orbital elements,

1 19122U 88040B   15214.48804825 -.00000245  00000-0 -12593-2 0  9992
2 19122 007.2746 086.9160 7138859 316.0479 271.1275 02.33102714180966
Epoch (UTC): 02 August 2015 11:42:47
Eccentricity: 0.7138859
inclination: 7.2746°
perigee height: 496 km
apogee height: 34801 km
right ascension of ascending node: 86.9160°
argument of perigee: 316.0479°
revolutions per day: 2.33102714
mean anomaly at epoch: 271.1275°
orbit number at epoch: 18096

The dashed part of the orbit path shows where the satellite is in the earth's shadow,  

DLR